TimeEDT,TemperatureF,Dew PointF,Humidity,Sea Level PressureIn,VisibilityMPH,Wind Direction,Wind SpeedMPH,Gust SpeedMPH,PrecipitationIn,Events,Conditions,WindDirDegrees,DateUTC
12:15 AM,36.0,32.0,86,30.33,10.0,Calm,Calm,-,N/A,,Clear,0,2013-03-10 05:15:00
12:35 AM,34.9,32.0,89,30.33,10.0,Calm,Calm,-,N/A,,Scattered Clouds,0,2013-03-10 05:35:00
12:55 AM,34.2,32.0,92,30.32,10.0,Calm,Calm,-,N/A,,Scattered Clouds,0,2013-03-10 05:55:00
1:15 AM,34.0,32.0,92,30.32,10.0,Calm,Calm,-,N/A,,Clear,0,2013-03-10 06:15:00
1:35 AM,32.9,31.5,94,30.31,10.0,Calm,Calm,-,N/A,,Clear,0,2013-03-10 06:35:00
1:55 AM,32.5,31.3,95,30.31,10.0,Calm,Calm,-,N/A,,Clear,0,2013-03-10 06:55:00
3:15 AM,32.7,31.3,94,30.30,10.0,Calm,Calm,-,N/A,,Clear,0,2013-03-10 07:15:00
3:35 AM,32.4,31.1,95,30.30,10.0,Calm,Calm,-,N/A,,Clear,0,2013-03-10 07:35:00
3:55 AM,32.7,31.6,96,30.29,10.0,Calm,Calm,-,N/A,,Clear,0,2013-03-10 07:55:00
4:15 AM,32.0,31.1,96,30.29,10.0,Calm,Calm,-,N/A,,Clear,0,2013-03-10 08:15:00
4:35 AM,32.0,30.2,93,30.29,10.0,Calm,Calm,-,N/A,,Clear,0,2013-03-10 08:35:00
4:55 AM,32.0,31.1,96,30.30,10.0,Calm,Calm,-,N/A,,Clear,0,2013-03-10 08:55:00
5:15 AM,31.6,30.6,96,30.30,10.0,Calm,Calm,-,N/A,,Clear,0,2013-03-10 09:15:00
5:35 AM,32.0,30.9,96,30.30,10.0,Calm,Calm,-,N/A,,Clear,0,2013-03-10 09:35:00
5:55 AM,31.3,30.2,96,30.30,10.0,Calm,Calm,-,N/A,,Clear,0,2013-03-10 09:55:00
6:15 AM,30.9,30.0,96,30.30,10.0,Calm,Calm,-,N/A,,Clear,0,2013-03-10 10:15:00
6:35 AM,31.3,30.0,95,30.30,10.0,Calm,Calm,-,N/A,,Clear,0,2013-03-10 10:35:00
6:55 AM,30.7,30.0,97,30.30,10.0,Calm,Calm,-,N/A,,Clear,0,2013-03-10 10:55:00
7:15 AM,31.1,30.0,96,30.31,10.0,Calm,Calm,-,N/A,,Clear,0,2013-03-10 11:15:00
7:35 AM,30.2,30.2,100,30.31,10.0,Calm,Calm,-,N/A,,Clear,0,2013-03-10 11:35:00
7:55 AM,30.7,30.0,97,30.32,10.0,Calm,Calm,-,N/A,,Clear,0,2013-03-10 11:55:00
8:15 AM,31.6,30.7,96,30.32,10.0,Calm,Calm,-,N/A,,Clear,0,2013-03-10 12:15:00
8:35 AM,34.7,33.4,95,30.32,10.0,Calm,Calm,-,N/A,,Clear,0,2013-03-10 12:35:00
8:55 AM,41.4,37.4,86,30.33,10.0,Calm,Calm,-,N/A,,Clear,0,2013-03-10 12:55:00
9:15 AM,40.5,36.1,85,30.33,10.0,Calm,Calm,-,N/A,,Clear,0,2013-03-10 13:15:00
9:35 AM,47.1,37.0,68,30.34,10.0,Calm,Calm,-,N/A,,Clear,0,2013-03-10 13:35:00
9:55 AM,49.8,36.7,61,30.35,10.0,Calm,Calm,-,N/A,,Clear,0,2013-03-10 13:55:00
10:15 AM,54.1,35.4,49,30.35,10.0,South,4.6,-,N/A,,Clear,170,2013-03-10 14:15:00
10:35 AM,55.6,34.3,45,30.34,10.0,South,6.9,-,N/A,,Clear,170,2013-03-10 14:35:00
10:55 AM,56.3,33.6,42,30.34,10.0,North,-9999.0,-,N/A,,Clear,0,2013-03-10 14:55:00
11:15 AM,57.9,33.6,40,30.33,10.0,South,8.1,-,N/A,,Clear,170,2013-03-10 15:15:00
11:35 AM,59.2,33.6,38,30.33,10.0,SSE,5.8,-,N/A,,Clear,150,2013-03-10 15:35:00
11:55 AM,59.9,32.9,36,30.33,10.0,South,5.8,-,N/A,,Clear,170,2013-03-10 15:55:00
12:15 PM,61.2,33.4,35,30.33,10.0,SSE,9.2,-,N/A,,Clear,150,2013-03-10 16:15:00
12:35 PM,62.1,33.3,34,30.32,10.0,SSW,5.8,-,N/A,,Clear,200,2013-03-10 16:35:00
12:55 PM,61.3,32.5,34,30.32,10.0,SSE,5.8,-,N/A,,Clear,160,2013-03-10 16:55:00
1:15 PM,63.5,33.8,33,30.30,10.0,SE,8.1,-,N/A,,Clear,140,2013-03-10 17:15:00
1:35 PM,63.5,34.0,33,30.30,10.0,South,5.8,-,N/A,,Clear,170,2013-03-10 17:35:00
1:55 PM,62.8,32.2,32,30.28,10.0,South,3.5,-,N/A,,Clear,180,2013-03-10 17:55:00
2:15 PM,64.6,32.0,30,30.27,10.0,SSW,5.8,-,N/A,,Clear,210,2013-03-10 18:15:00
2:35 PM,65.5,33.1,30,30.26,10.0,SSW,5.8,-,N/A,,Clear,210,2013-03-10 18:35:00
2:55 PM,65.5,33.1,30,30.25,10.0,SSW,3.5,-,N/A,,Clear,200,2013-03-10 18:55:00
3:15 PM,65.5,33.6,31,30.25,10.0,SSW,4.6,-,N/A,,Clear,210,2013-03-10 19:15:00
3:35 PM,66.2,33.8,30,30.25,10.0,SSW,9.2,-,N/A,,Clear,210,2013-03-10 19:35:00
3:55 PM,66.6,34.2,30,30.24,10.0,SE,8.1,-,N/A,,Clear,140,2013-03-10 19:55:00
4:15 PM,67.3,33.6,29,30.24,10.0,South,6.9,-,N/A,,Clear,170,2013-03-10 20:15:00
4:35 PM,67.1,34.2,30,30.24,10.0,SSW,10.4,-,N/A,,Clear,210,2013-03-10 20:35:00
4:55 PM,67.1,31.5,27,30.24,10.0,SSW,10.4,-,N/A,,Clear,200,2013-03-10 20:55:00
5:15 PM,66.6,31.6,27,30.23,10.0,South,6.9,-,N/A,,Clear,180,2013-03-10 21:15:00
5:35 PM,66.6,32.2,28,30.23,10.0,SE,8.1,-,N/A,,Clear,140,2013-03-10 21:35:00
5:55 PM,66.6,33.6,29,30.23,10.0,South,8.1,-,N/A,,Clear,180,2013-03-10 21:55:00
6:15 PM,65.8,33.1,30,30.22,10.0,SSE,8.1,-,N/A,,Clear,150,2013-03-10 22:15:00
6:35 PM,63.7,32.5,31,30.23,10.0,South,8.1,-,N/A,,Clear,190,2013-03-10 22:35:00
6:55 PM,61.2,33.4,35,30.23,10.0,South,5.8,-,N/A,,Clear,170,2013-03-10 22:55:00
7:15 PM,60.3,33.3,36,30.23,10.0,SSE,4.6,-,N/A,,Clear,150,2013-03-10 23:15:00
7:35 PM,58.1,33.4,39,30.23,10.0,SSE,4.6,-,N/A,,Clear,160,2013-03-10 23:35:00
7:55 PM,58.1,32.9,39,30.24,10.0,Calm,Calm,-,N/A,,Clear,0,2013-03-10 23:55:00
8:15 PM,52.3,33.3,48,30.24,10.0,Calm,Calm,-,N/A,,Clear,0,2013-03-11 00:15:00
8:35 PM,50.7,36.1,57,30.25,10.0,Calm,Calm,-,N/A,,Clear,0,2013-03-11 00:35:00
8:55 PM,50.7,36.0,57,30.25,10.0,Calm,Calm,-,N/A,,Clear,0,2013-03-11 00:55:00
9:15 PM,49.1,36.7,62,30.26,10.0,Calm,Calm,-,N/A,,Clear,0,2013-03-11 01:15:00
9:35 PM,46.6,36.3,67,30.25,10.0,Calm,Calm,-,N/A,,Clear,0,2013-03-11 01:35:00
9:55 PM,45.5,35.6,68,30.26,10.0,Calm,Calm,-,N/A,,Clear,0,2013-03-11 01:55:00
10:15 PM,44.2,36.0,73,30.27,10.0,Calm,Calm,-,N/A,,Clear,0,2013-03-11 02:15:00
10:35 PM,43.7,36.0,74,30.27,10.0,Calm,Calm,-,N/A,,Clear,0,2013-03-11 02:35:00
10:55 PM,43.0,35.4,75,30.26,10.0,ESE,3.5,-,N/A,,Clear,120,2013-03-11 02:55:00
11:15 PM,52.9,30.9,43,30.27,10.0,South,6.9,-,N/A,,Clear,170,2013-03-11 03:15:00
11:35 PM,52.9,30.2,42,30.25,10.0,SSE,6.9,-,N/A,,Clear,160,2013-03-11 03:35:00
11:55 PM,52.7,29.7,41,30.26,10.0,South,9.2,-,N/A,,Clear,170,2013-03-11 03:55:00
12:15 AM,51.8,28.4,41,30.26,10.0,South,5.8,-,N/A,,Clear,180,2013-03-11 04:15:00
12:35 AM,50.5,27.5,41,30.26,10.0,South,4.6,-,N/A,,Clear,180,2013-03-11 04:35:00
12:55 AM,48.6,27.3,44,30.25,10.0,South,3.5,-,N/A,,Clear,170,2013-03-11 04:55:00